#timestamp,LO_Frequency,Hit,StdDev 
1706706015.8,286046999.2,N
1706706035.6,286046998.8,N
1706706055.5,286047000.6,N
1706706075.3,286047000.7,N
1706706095.1,286047001.0,N
1706706115.9,286046998.6,N
1706706135.7,286046998.8,N
1706706155.6,286046998.5,N
1706706175.4,286046998.5,N
1706706195.2,286046999.2,N
1706706215.1,286046999.4,N
1706706216.0,286046999.4,N
1706706235.8,286046998.7,N
1706706255.7,286046998.2,N
1706706275.5,286047001.2,N
1706706295.3,286046999.9,N
1706706315.2,286047002.8,N
1706706335.9,286047000.1,N
1706706355.7,286047000.4,N
1706706375.6,286047000.7,N
1706706395.4,286047000.5,N
1706706415.2,286047001.0,N
1706706435.1,286047001.2,N
1706706436.0,286047001.2,N
1706706455.8,286046999.8,N
1706706475.7,286047002.3,N
1706706495.5,286046999.9,N
1706706515.3,286046998.4,N
1706706535.2,286046999.3,N
1706706555.0,286046998.2,N
1706706555.9,286046998.2,N
1706706575.8,286046998.7,N
1706706595.6,286046999.5,N
1706706615.4,286046999.5,N
1706706635.3,286046997.9,N
1706706655.1,286046999.6,N
1706706675.8,286046997.3,N
1706706695.7,286046997.8,N
1706706715.5,286046999.0,N
1706706735.4,286046999.3,N
1706706755.2,286046999.1,N
1706706775.0,286046999.6,N
1706706775.9,286046999.6,N
1706706795.8,286046999.2,N
1706706815.6,286046996.8,N
1706706835.4,286046999.1,N
1706706855.3,286046999.4,N
1706706875.1,286046998.8,N
1706706895.9,286047000.7,N
1706706915.7,286047000.8,N
1706706935.5,286046999.8,N
1706706955.4,286047000.5,N
1706706975.2,286047000.9,N
1706706995.0,286046999.0,N
1706706996.0,286046999.0,N
1706707015.8,286046998.4,N
1706707035.6,286046999.1,N
1706707055.5,286046999.1,N
1706707075.3,286046999.5,N
1706707095.1,286046998.5,N
1706707115.9,286047001.0,N
1706707135.7,286047001.0,N
1706707155.6,286046998.5,N
1706707175.4,286047001.2,N
1706707195.2,286046998.8,N
1706707215.1,286046998.1,N
1706707216.0,286046998.1,N
1706707235.8,286047000.8,N
1706707255.6,286047000.7,N
1706707275.5,286046999.6,N
1706707295.3,286046997.0,N
1706707315.2,286046998.0,N
1706707335.9,286046996.7,N
1706707355.7,286046997.1,N
1706707375.6,286046996.6,N
1706707395.4,286046999.3,N
1706707415.2,286046996.6,N
1706707435.1,286047001.1,N
1706707436.0,286047001.1,N
1706707455.8,286046998.8,N
1706707475.7,286047000.5,N
1706707495.5,286046998.7,N
1706707515.3,286046999.3,N
1706707535.2,286046999.3,N
1706707555.0,286047000.6,N
1706707555.9,286047000.6,N
1706707575.8,286046998.3,N
1706707595.6,286046999.2,N
1706707615.4,286046996.5,N
1706707635.3,286047000.6,N
1706707655.1,286047002.3,N
1706707675.8,286047000.4,N
1706707695.7,286046998.5,N
1706707715.5,286047001.1,N
1706707735.4,286046999.3,N
1706707755.2,286046998.9,N
1706707775.0,286046999.0,N
1706707775.9,286046999.0,N
1706707795.8,286047001.1,N
1706707815.6,286046999.1,N
1706707835.4,286046998.4,N
1706707855.3,286047000.8,N
1706707875.1,286047000.1,N
1706707895.9,286047000.3,N
1706707915.7,286047000.2,N
1706707935.5,286047000.9,N
1706707955.4,286047000.3,N
1706707975.2,286047000.9,N
1706707995.0,286047002.0,N
1706707995.9,286047002.0,N
1706708015.8,286047001.7,N
1706708035.6,286047000.1,N
1706708055.5,286047000.2,N
1706708075.3,286047002.3,N
1706708095.1,286047000.9,N
1706708115.9,286046998.2,N
1706708135.7,286047000.8,N
1706708155.6,286046998.8,N
1706708175.4,286047000.8,N
1706708195.2,286047001.2,N
1706708215.1,286047000.9,N
1706708216.0,286047000.9,N
1706708235.8,286047000.7,N
1706708255.7,286047002.1,N
1706708275.5,286047002.0,N
1706708295.3,286046999.8,N
1706708315.2,286047002.0,N
1706708335.0,286047003.4,Y
1706708335.9,286047003.4,P
1706708355.8,286047003.7,N
1706708375.6,286047005.7,P
1706708395.4,286047005.2,N
1706708415.3,286047005.2,N
1706708435.1,286047005.7,Y
1706708455.9,286047001.0,P
1706708475.7,286047001.0,N
1706708495.5,286046998.7,N
1706708515.4,286047000.9,N
1706708535.2,286046999.0,N
1706708555.0,286047000.8,N
1706708555.9,286047000.8,N
1706708575.8,286047000.8,N
1706708595.6,286046998.8,N
1706708615.5,286047001.2,N
1706708635.3,286047000.8,N
1706708655.1,286046999.1,N
1706708675.9,286046997.0,N
1706708695.7,286046996.7,N
1706708715.5,286046999.1,N
1706708735.4,286046999.1,N
1706708755.2,286046999.3,N
1706708775.1,286046997.4,N
1706708776.0,286046997.4,N
1706708795.8,286046995.0,N
1706708815.6,286046997.6,N
1706708835.5,286046999.1,N
1706708855.3,286046998.3,N
1706708875.1,286046999.2,N
1706708895.9,286046997.4,N
1706708915.7,286046997.0,N
1706708935.6,286046996.6,N
1706708955.4,286046997.7,N
1706708975.2,286046996.7,N
1706708995.1,286046997.1,N
1706708996.0,286046997.1,N
1706709015.8,286046997.1,N
1706709035.6,286046997.6,N
1706709055.5,286046998.0,N
1706709075.3,286046997.4,N
1706709095.2,286046997.5,N
1706709115.9,286046995.2,Y
1706709135.7,286046999.1,P
1706709155.6,286046997.1,P
1706709175.4,286046996.7,P
1706709195.3,286046996.5,Y
1706709215.1,286047001.9,P
1706709235.9,286047002.2,N
1706709255.7,286047000.4,N
1706709275.5,286047002.1,N
1706709295.4,286047002.6,N
1706709315.2,286046999.9,N
1706709335.1,286047002.8,N
1706709336.0,286047002.8,N
1706709355.8,286047001.0,N
1706709375.6,286047000.1,N
1706709395.5,286047000.3,N
1706709415.3,286046998.3,N
1706709435.1,286047001.1,N
1706709455.9,286047000.0,N
1706709475.7,286047002.8,N
1706709495.6,286047002.5,N
1706709515.4,286047001.3,N
1706709535.2,286047004.4,N
1706709555.1,286047001.4,N
1706709556.0,286047001.4,N
1706709605.8,286047004.0,E
